Вернуться в каталог

CZ-6A DEB

АктивенPO
NORAD 61833·DEBRIS·🇨🇳 China

Запущен Aug 6, 2024 с Taiyuan Satellite Launch Center

Loading…

Ближайшие Пролёты (ближайшие 24 часа)

TLE

СвежийSource: Space-Track

Эпоха: Sep 14, 2026, 10:15 UTC

1 61833U 24140ACZ 26257.42738704  .00009742  00000-0  17687-2 0  9992
2 61833  88.8545 245.9716 0053167 349.9741  10.0408 14.65214915105719

Отслеживайте CZ-6A DEB в реальном времени с AllMySat

Download on the App Store